Preview of NWS' New Version of Forecast
This preview is not operational and should not be used for support decisions.
Latest weather observations around

Shreveport, Shreveport Downtown Airport (KDTN)

Using English Units (Switch to International System of Units)
Date/ Time (CDT) Wind (mph) Vis. (mi) Weather Sky Cond. Temp (°F) Rel. Humidity Wind Chill (°F) Heat Index (°F) Pressure Precip. (in)
Air Dwpt 6 hour Altimeter (inHg) Sea level (inHg) 1 hr 3 hr 6 hr
Max Min
Aug 20 17:53 SW 5 10 Mostly Clear FEW003 90 74     59%   99 29.97 29.96      
Aug 20 17:49 SW 5 10 Mostly Clear FEW003 91 73     56%   101 29.97        
Aug 20 16:53 SE 8 10 Clear CLR 93 73     52%   102 29.98 29.97 0    
Aug 20 16:40 ESE 8 10 Clear CLR 92 75     58%   103 29.98   0    
Aug 20 16:02 ESE 7 10 Partly Cloudy FEW055 SCT075 SCT100 87 78     75%   100 29.98   0    
Aug 20 15:53 ESE 10 10 Light Rain FEW055 SCT075 BKN100 87 78     75%   100 29.97 29.96 0 0  
Aug 20 15:36 E 14 2.5 Heavy Rain FEW055 SCT075 OVC110 87 76     70%   98 29.99   0    
Aug 20 15:30 ESE 11 9 Light Rain SCT055 SCT075 BKN120 90 73     58%   98 29.99   0    
Aug 20 15:14 E 11 10 Thunderstorms SCT055 SCT075 91 74     57%   101 30        
Aug 20 14:53 SSE 7 10 Mostly Clear FEW080 98 72     43%   107 29.99 29.98      
Aug 20 14:46 ESE 5 10 Partly Cloudy FEW055 SCT075 98 73     45%   109 29.99        
Aug 20 13:53 E 5 10 Clear CLR 99 73     44%   110 30.01 30      
Aug 20 12:53 Calm 10 Clear CLR 96 75     51%   109 30.03 30.02      
Aug 20 11:53 ENE 6 10 Clear CLR 93 75     56%   105 30.04 30.03      
Aug 20 10:53 Calm 10 Clear CLR 91 77     64%   105 30.04 30.03      
Aug 20 09:53 WSW 5 10 Clear CLR 88 77     70%   100 30.03 30.02      
Aug 20 08:53 S 5 10 Clear CLR 85 77     77%   95 30.03 30.02      
Aug 20 07:53 SE 5 10 Clear CLR 82 77     85%   90 30.03 30.02      
Aug 20 06:53 Calm 10 Clear CLR 81 76     85%   87 30.02 30.01      
Aug 20 05:53 SSE 6 10 Clear CLR 81 76     85%   87 30.01 30      
Aug 20 04:53 Calm 10 Clear CLR 81 76     85%   87 30 29.99      
Aug 20 03:53 S 5 10 Clear CLR 82 76     82%   89 29.99 29.98      
Aug 20 02:53 SSW 3 10 Clear CLR 82 76     82%   89 29.99 29.98      
Aug 20 01:53 S 6 10 Clear CLR 83 76     79%   91 29.99 29.98      
Aug 20 00:53 SSE 8 10 Clear   83 76     79%   91 30.01 30      
Aug 19 23:53 SSE 9 10 Clear CLR 85 76     75%   94 30.01 30      
Aug 19 22:53 S 8 10 Clear CLR 88 76     68%   99 30 29.98      
Aug 19 21:53 SE 3 10 Clear CLR 88 74     63%   97 29.99 29.98      
Aug 19 20:53 SE 5 10 Clear CLR 90 74     59%   99 29.96 29.95      
Aug 19 19:53 SE 5 10 Clear CLR 93 73     52%   102 29.94 29.93      
Aug 19 18:53 SSE 7 10 Clear CLR 96 72     46%   105 29.94 29.93      
Aug 19 17:53 SSE 6 10 Clear CLR 97 72     45%   106 29.93 29.92      
Aug 19 16:53 3 10 Clear CLR 98 72     43%   107 29.93 29.92      
Aug 19 15:53 Calm 10 Clear CLR 98 73     45%   109 29.94 29.93      
Aug 19 14:53 6 10 Clear CLR 97 74     48%   108 29.96 29.95      
Aug 19 13:53 3 10 Mostly Clear FEW045 98 74     46%   110 29.99 29.98      
Aug 19 12:53 5 10 Clear CLR 96 73     48%   106 30 29.99      
Aug 19 11:53 SW 7 10 Clear CLR 92 75     58%   103 30.02 30.01      
Aug 19 10:53 SW 7 10 Clear CLR 90 75     62%   101 30.02 30.01      
Aug 19 09:53 SW 9 10 Mostly Clear FEW021 87 76     70%   98 30.02 30.01      
Aug 19 08:53 SW 7 10 Clear CLR 85 77     77%   95 30.01 30      
Aug 19 07:53 SW 9 10 Clear CLR 82 77     85%   90 30.01 30      
Aug 19 06:53 SSE 3 10 Mostly Clear FEW011 80 76     87%   85 30 29.99      
Aug 19 05:53 SE 6 10 Mostly Clear FEW012 80 75     85%   85 29.99 29.98      
Aug 19 04:53 S 5 10 Clear CLR 81 76     85%   87 29.96 29.95      
Aug 19 03:53 SSE 3 10 Clear CLR 80 75     85%   85 29.95 29.94      
Aug 19 02:53 SE 7 10 Clear CLR 81 75     82%   87 29.95 29.94      
Aug 19 01:53 S 8 10 Clear CLR 83 75     77%   90 29.95 29.94      
Aug 19 00:53 S 7 10 Clear CLR 84 75     74%   92 29.95 29.94      
Aug 18 23:53 S 9 10 Clear CLR 85 75     72%   93 29.95 29.94      
Aug 18 22:53 SSE 7 10 Clear CLR 85 75     72%   93 29.94 29.93      
Aug 18 21:53 SSE 9 10 Clear CLR 86 74     67%   94 29.92 29.91      
Aug 18 20:53 SSE 9 10 Clear CLR 89 75     63%   99 29.89 29.88      
Aug 18 19:53 SSE 10 10 Clear CLR 92 74     56%   102 29.87 29.86      
Aug 18 18:53 SE 11 10 Clear CLR 95 72     48%   104 29.86 29.85      
Aug 18 17:53 SE 9 10 Clear CLR 97 71     43%   105 29.86 29.85      
Aug 18 16:53 3 10 Clear CLR 98 70     40%   105 29.88 29.87      
Aug 18 15:53 3 10 Partly Cloudy SCT060 97 70     42%   104 29.9 29.88      
Aug 18 14:53 WSW 7 10 Partly Cloudy FEW070 SCT085 96 71     45%   104 29.9 29.89      
Aug 18 13:53 W 9 10 Mostly Clear FEW050 96 72     46%   105 29.92 29.91      
Aug 18 12:53 WSW 13 10 Mostly Cloudy BKN044 BKN065 92 72     52%   100 29.94 29.93      
Aug 18 11:53 SW 14 10 Partly Cloudy SCT036 90 73     58%   98 29.96 29.94      
Aug 18 10:53 WSW 14 10 Mostly Cloudy SCT034 BKN049 89 74     61%   98 29.95 29.94      
Aug 18 10:06 SSW 10 10 Partly Cloudy FEW019 SCT027 88 76     68%   99 29.95        
Aug 18 09:53 SSW 9 10 Mostly Cloudy BKN018 BKN027 86 76     72%   96 29.95 29.94      
Aug 18 09:24 SSW 13 10 Mostly Cloudy BKN017 85 76     75%   94 29.95        
Aug 18 08:53 S 10 10 Partly Cloudy SCT014 84 76     77%   93 29.94 29.93      
Aug 18 07:53 S 7 10 Clear CLR 81 76     85%   87 29.93 29.92      
Aug 18 07:21 SSE 6 10 Mostly Clear FEW007 79 76     90%   83 29.93        
Aug 18 06:53 SE 7 10 Clear CLR 79 76     90%   83 29.92 29.91      
Aug 18 05:53 SSE 6 10 Clear CLR 80 76     87%   85 29.9 29.89      
Aug 18 04:53 SSE 6 10 Clear CLR 80 76     87%   85 29.9 29.88      
Aug 18 03:53 S 5 10 Clear CLR 81 76     85%   87 29.89 29.88      
Aug 18 02:53 S 6 10 Clear CLR 81 75     82%   87 29.9 29.89      
Aug 18 01:53 SSE 7 10 Clear CLR 82 75     79%   89 29.89 29.88      
Aug 18 00:53 SE 6 10 Clear CLR 82 75     79%   89 29.9 29.88     0
Aug 17 23:53 SSE 7 10 Clear CLR 82 75     79%   89 29.9 29.89      
Aug 17 22:53 SE 6 10 Clear CLR 81 75     82%   87 29.9 29.89      
Aug 17 21:53 SSE 7 10 Clear CLR 81 74     79%   86 29.88 29.87   0  
Aug 17 20:53 ESE 9 10 Mostly Clear FEW085 82 74     77%   88 29.87 29.86 0    
Aug 17 19:53 SE 22 10 Light Rain CLR 84 74     72%   91 29.87 29.86 0    
Aug 17 18:53 SE 14 10 Light Rain FEW050 91 72     54%   99 29.84 29.83 0   0
May 15 10:53 6 10 Clear CLR 85 67     55%   88 30 29.99      
May 15 03:53 SW 7 10 Clear CLR 75 67     76%   76 29.93 29.92      
May 14 19:53 SSW 7 10 Clear   85 66     53%   87 29.89 29.88      
May 14 06:53 SE 3 10 Clear CLR 73 70     90%   74 30.02 30.01      
May 13 23:53 S 5 10 Clear CLR 80 70     71%   83 30 29.99      
May 12 13:53 SSW 10 10 Partly Cloudy SCT044 SCT060 87 68     53%   91 30.03 30.01      
May 12 08:26 S 9 10 Cloudy OVC010 74 70     87%   75 30.05        
May 11 21:53 SSE 9 10 Clear CLR 81 63     54%   82 29.96 29.95      
Jun 12 01:33 SE 9 10 Cloudy OVC010 78 73     85%   80 29.98        
Jun 10 14:53 S 9 10 Partly Cloudy SCT055 85 62     46%   86 29.95 29.94      
Jun 10 12:53 SE 9 10 Clear CLR 84 65     53%   86 29.97 29.96      
Jun 10 01:53 SE 3 10 Clear CLR 71 61     70%   71 29.91 29.9      
Jun 09 22:53 Calm 10 Clear CLR 71 61     70%   71 29.92 29.91      
Jun 08 23:53 Calm 10 Clear   68 59     73%     29.93 29.92      
Jun 08 13:53 NNE 8 10 Clear CLR 84 54     36%   83 29.98 29.97      
Jun 08 05:53 Calm 10 Clear CLR 63 58     84%     29.96 29.96      
Jun 07 13:53 NE 13 10 Clear CLR 86 62     45%   87 29.93 29.92      
Jun 05 14:53 SSW 3 10 Partly Cloudy SCT034 83 69     63%   87 29.72 29.72